| time (UTC) | temp F | wind direction | speed MPH | gust MPH | rain 1hr in | rain 24hr in | rain mn in | humidity % | barometer mb |
| 20260903033046 | 58 | 240 | 0.0 | 3.0 | 0.00 | 0.00 | 0.00 | 70 | 1008.4 |
| 20260903031545 | 57 | 243 | 0.0 | 3.0 | 0.00 | 0.00 | 0.00 | 70 | 1008.5 |
| 20260903030044 | 57 | 22 | 0.0 | 0.0 | 0.00 | 0.00 | 0.00 | 68 | 1008.6 |
| 20260903024544 | 58 | 22 | 0.0 | 0.0 | 0.00 | 0.00 | 0.00 | 65 | 1008.1 |
| 20260903023053 | 59 | 351 | 0.0 | 0.0 | 0.00 | 0.00 | 0.00 | 62 | 1007.9 |
| 20260903021543 | 60 | 345 | 0.0 | 0.0 | 0.00 | 0.00 | 0.00 | 61 | 1007.8 |
| 20260903020042 | 61 | 335 | 0.0 | 0.0 | 0.00 | 0.00 | 0.00 | 57 | 1008.0 |
| 20260903014549 | 62 | 319 | 0.0 | 0.0 | 0.00 | 0.00 | 0.00 | 57 | 1008.2 |
| 20260903013048 | 63 | 340 | 0.0 | 0.0 | 0.00 | 0.00 | 0.00 | 57 | 1007.8 |
| 20260903011544 | 63 | 326 | 0.0 | 0.0 | 0.00 | 0.00 | 0.00 | 58 | 1008.1 |
| 20260903010046 | 65 | 60 | 0.0 | 0.0 | 0.00 | 0.00 | 0.00 | 53 | 1008.1 |
| 20260903004541 | 65 | 143 | 0.0 | 0.0 | 0.00 | 0.00 | 0.00 | 53 | 1007.7 |
| 20260903003041 | 66 | 304 | 0.0 | 0.0 | 0.00 | 0.00 | 0.00 | 44 | 1007.3 |
| 20260903001538 | 66 | 297 | 0.0 | 0.0 | 0.00 | 0.00 | 0.00 | 47 | 1007.2 |
| 20260903000040 | 66 | 303 | 0.0 | 0.0 | 0.00 | 0.00 | 0.00 | 45 | 1006.2 |
| 20260902234555 | 66 | 288 | 0.0 | 0.0 | 0.00 | 0.00 | 0.00 | 45 | 1006.7 |
| 20260902233041 | 65 | 283 | 0.0 | 0.0 | 0.00 | 0.00 | 0.00 | 45 | 1007.4 |
| 20260902231544 | 65 | 266 | 0.0 | 0.0 | 0.00 | 0.00 | 0.00 | 49 | 1007.6 |
| 20260902230037 | 64 | 282 | 0.0 | 34.0 | 0.00 | 0.00 | 0.00 | 50 | 1007.6 |
| 20260902221554 | 77 | 161 | 0.0 | 3.0 | 0.00 | 0.00 | 0.00 | 35 | 1003.5 |
| 20260902220100 | 78 | 202 | 0.0 | 15.0 | 0.00 | 0.00 | 0.00 | 35 | 1003.8 |
| 20260902214550 | 79 | 219 | 3.0 | 9.0 | 0.00 | 0.00 | 0.00 | 38 | 1004.0 |
| 20260902213049 | 80 | 229 | 7.0 | 11.0 | 0.00 | 0.00 | 0.00 | 36 | 1004.0 |
| 20260902211548 | 83 | 269 | 8.0 | 11.0 | 0.00 | 0.00 | 0.00 | 30 | 1004.1 |
| 20260902210044 | 82 | 272 | 4.0 | 9.0 | 0.00 | 0.00 | 0.00 | 31 | 1004.3 |
| 20260902204541 | 81 | 250 | 5.0 | 8.0 | 0.00 | 0.00 | 0.00 | 34 | 1004.8 |
| 20260902203038 | 82 | 230 | 0.0 | 4.0 | 0.00 | 0.00 | 0.00 | 32 | 1005.1 |
| 20260902201539 | 80 | 293 | 1.0 | 6.0 | 0.00 | 0.00 | 0.00 | 31 | 1005.3 |
| 20260902200035 | 80 | 238 | 1.0 | 7.0 | 0.00 | 0.00 | 0.00 | 36 | 1005.5 |
| 20260902194532 | 79 | 137 | 1.0 | 9.0 | 0.00 | 0.00 | 0.00 | 33 | 1005.7 |
| 20260902193029 | 79 | 248 | 3.0 | 7.0 | 0.00 | 0.00 | 0.00 | 33 | 1006.0 |
| 20260902191524 | 78 | 276 | 3.0 | 10.0 | 0.00 | 0.00 | 0.00 | 37 | 1006.1 |
| 20260902190022 | 77 | 278 | 5.0 | 8.0 | 0.00 | 0.00 | 0.00 | 38 | 1006.2 |
| 20260902184519 | 76 | 277 | 3.0 | 8.0 | 0.00 | 0.00 | 0.00 | 41 | 1006.4 |
| 20260902183018 | 76 | 251 | 4.0 | 10.0 | 0.00 | 0.00 | 0.00 | 41 | 1006.6 |
| 20260902181516 | 77 | 217 | 4.0 | 12.0 | 0.00 | 0.00 | 0.00 | 38 | 1006.8 |
| 20260902180011 | 76 | 264 | 4.0 | 9.0 | 0.00 | 0.00 | 0.00 | 41 | 1007.0 |
| 20260902174508 | 75 | 256 | 5.0 | 8.0 | 0.00 | 0.00 | 0.00 | 43 | 1007.2 |
| 20260902173018 | 74 | 243 | 0.0 | 2.0 | 0.00 | 0.00 | 0.00 | 47 | 1007.5 |
| 20260902171503 | 73 | 260 | 0.0 | 5.0 | 0.00 | 0.00 | 0.00 | 50 | 1007.5 |
| 20260902170059 | 71 | 209 | 0.0 | 1.0 | 0.00 | 0.00 | 0.00 | 56 | 1007.3 |
| 20260902164555 | 69 | 115 | 0.0 | 0.0 | 0.00 | 0.00 | 0.00 | 53 | 1007.3 |
| 20260902163054 | 69 | 122 | 0.0 | 0.0 | 0.00 | 0.00 | 0.00 | 53 | 1007.5 |
| 20260902161558 | 69 | 138 | 0.0 | 0.0 | 0.00 | 0.00 | 0.00 | 53 | 1007.6 |
| 20260902160051 | 68 | 264 | 0.0 | 0.0 | 0.00 | 0.00 | 0.00 | 52 | 1007.6 |
| 20260902154547 | 68 | 283 | 0.0 | 0.0 | 0.00 | 0.00 | 0.00 | 51 | 1007.8 |
| 20260902153046 | 67 | 280 | 0.0 | 0.0 | 0.00 | 0.00 | 0.00 | 52 | 1007.9 |
| 20260902151543 | 68 | 130 | 0.0 | 0.0 | 0.00 | 0.00 | 0.00 | 60 | 1008.2 |
| 20260902150041 | 68 | 136 | 0.0 | 0.0 | 0.00 | 0.00 | 0.00 | 55 | 1008.2 |
| 20260902144541 | 64 | 30 | 0.0 | 0.0 | 0.00 | 0.00 | 0.00 | 58 | 1008.3 |
| 20260902143040 | 61 | 51 | 0.0 | 0.0 | 0.00 | 0.00 | 0.00 | 66 | 1008.5 |
| 20260902141540 | 59 | 26 | 0.0 | 1.0 | 0.00 | 0.00 | 0.00 | 70 | 1008.5 |
| 20260902140043 | 59 | 16 | 0.0 | 2.0 | 0.00 | 0.00 | 0.00 | 72 | 1008.7 |
| 20260902134539 | 58 | 12 | 0.0 | 0.0 | 0.00 | 0.00 | 0.00 | 71 | 1008.7 |
| 20260902133039 | 59 | 1 | 0.0 | 0.0 | 0.00 | 0.00 | 0.00 | 67 | 1008.6 |
| 20260902131539 | 60 | 356 | 0.0 | 0.0 | 0.00 | 0.00 | 0.00 | 66 | 1008.4 |
| 20260902130042 | 60 | 21 | 0.0 | 0.0 | 0.00 | 0.00 | 0.00 | 62 | 1008.4 |
| 20260902124537 | 60 | 22 | 0.0 | 0.0 | 0.00 | 0.00 | 0.00 | 58 | 1008.5 |
| 20260902123039 | 60 | 22 | 0.0 | 0.0 | 0.00 | 0.00 | 0.00 | 59 | 1008.4 |
| 20260902121535 | 60 | 22 | 0.0 | 0.0 | 0.00 | 0.00 | 0.00 | 61 | 1008.5 |
| 20260902120035 | 61 | 22 | 0.0 | 0.0 | 0.00 | 0.00 | 0.00 | 62 | 1008.3 |
| 20260902114602 | 61 | 30 | 0.0 | 0.0 | 0.00 | 0.00 | 0.00 | 64 | 1008.0 |
| 20260902113041 | 59 | 23 | 0.0 | 0.0 | 0.00 | 0.00 | 0.00 | 66 | 1008.2 |
| 20260902111530 | 60 | 356 | 0.0 | 0.0 | 0.00 | 0.00 | 0.00 | 63 | 1008.5 |
| 20260902110038 | 58 | 286 | 0.0 | 0.0 | 0.00 | 0.00 | 0.00 | 64 | 1008.7 |
| 20260902104536 | 57 | 290 | 0.0 | 0.0 | 0.00 | 0.00 | 0.00 | 67 | 1008.8 |
| 20260902103027 | 59 | 288 | 0.0 | 0.0 | 0.00 | 0.00 | 0.00 | 62 | 1009.0 |
| 20260902101525 | 57 | 275 | 0.0 | 0.0 | 0.00 | 0.00 | 0.00 | 68 | 1008.9 |
| 20260902100024 | 56 | 275 | 0.0 | 0.0 | 0.00 | 0.00 | 0.00 | 70 | 1008.8 |
| 20260902094520 | 58 | 271 | 0.0 | 0.0 | 0.00 | 0.00 | 0.00 | 67 | 1008.7 |
| 20260902093016 | 60 | 250 | 0.0 | 0.0 | 0.00 | 0.00 | 0.00 | 63 | 1008.7 |
| 20260902091512 | 62 | 231 | 0.0 | 0.0 | 0.00 | 0.00 | 0.00 | 60 | 1008.5 |
| 20260902090008 | 63 | 243 | 0.0 | 0.0 | 0.00 | 0.00 | 0.00 | 60 | 1008.5 |
| 20260902084517 | 63 | 146 | 0.0 | 0.0 | 0.00 | 0.00 | 0.00 | 59 | 1008.6 |
| 20260902083005 | 63 | 157 | 0.0 | 0.0 | 0.00 | 0.00 | 0.00 | 57 | 1008.6 |
| 20260902081502 | 64 | 155 | 0.0 | 0.0 | 0.00 | 0.00 | 0.00 | 55 | 1008.6 |
| 20260902080104 | 64 | 157 | 0.0 | 0.0 | 0.00 | 0.00 | 0.00 | 53 | 1008.5 |
| 20260902080001 | 64 | 163 | 0.0 | 0.0 | 0.00 | 0.00 | 0.00 | 54 | 1008.6 |
| 20260902074612 | 64 | 146 | 0.0 | 0.0 | 0.00 | 0.00 | 0.00 | 53 | 1008.7 |
| 20260902073105 | 65 | 141 | 0.0 | 0.0 | 0.00 | 0.00 | 0.00 | 53 | 1008.7 |
| 20260902071602 | 65 | 172 | 0.0 | 0.0 | 0.00 | 0.00 | 0.00 | 55 | 1008.8 |
| 20260902070055 | 65 | 159 | 0.0 | 0.0 | 0.00 | 0.00 | 0.00 | 49 | 1008.5 |
| 20260902064552 | 66 | 151 | 0.0 | 0.0 | 0.00 | 0.00 | 0.00 | 51 | 1008.5 |
| 20260902063053 | 66 | 156 | 0.0 | 0.0 | 0.00 | 0.00 | 0.00 | 50 | 1008.7 |
| 20260902061551 | 67 | 149 | 0.0 | 0.0 | 0.00 | 0.00 | 0.00 | 50 | 1008.7 |
| 20260902060055 | 67 | 129 | 0.0 | 0.0 | 0.00 | 0.00 | 0.00 | 49 | 1008.8 |
| 20260902054545 | 68 | 133 | 0.0 | 0.0 | 0.00 | 0.00 | 0.00 | 47 | 1008.7 |
| 20260902053058 | 68 | 129 | 0.0 | 0.0 | 0.00 | 0.00 | 0.00 | 47 | 1008.9 |
| 20260902051544 | 69 | 165 | 0.0 | 0.0 | 0.00 | 0.00 | 0.00 | 46 | 1009.0 |
| 20260902050045 | 70 | 160 | 0.0 | 0.0 | 0.00 | 0.00 | 0.00 | 46 | 1008.9 |
| 20260902044641 | 71 | 143 | 0.0 | 0.0 | 0.00 | 0.00 | 0.00 | 44 | 1008.8 |
| 20260902043040 | 71 | 112 | 0.0 | 0.0 | 0.00 | 0.00 | 0.00 | 47 | 1008.9 |
| 20260902041541 | 71 | 129 | 0.0 | 0.0 | 0.00 | 0.00 | 0.00 | 45 | 1008.9 |
| 20260902040039 | 72 | 123 | 0.0 | 0.0 | 0.00 | 0.00 | 0.00 | 43 | 1008.9 |
| 20260902034551 | 72 | 115 | 0.0 | 0.0 | 0.00 | 0.00 | 0.00 | 41 | 1009.0 |